User: anonymous   Login
Location: Unspecified
(0.0000°N, 0.0000°E)
Time: 00:47:25
(UTC+00:00)
Language:

ZHUHAI-1 03D - Orbit

View from above orbital plane
View from above orbital plane
View from above satellite
View from above satellite

Ground track
Ground track

The orbit is defined by the following mean orbital elements,

1 44538U          26145.67947365 +.00000000 +00000-0 +53502-3 0 00000
2 44538  97.5362 294.5768 0007425  33.8199 326.3523 15.48311999    04
Epoch (UTC): 25 May 2026 16:18:26
Eccentricity: 0.0007425
inclination: 97.5362°
perigee height: 417 km
apogee height: 427 km
right ascension of ascending node: 294.5768°
argument of perigee: 33.8199°
revolutions per day: 15.48311999
mean anomaly at epoch: 326.3523°

The dashed part of the orbit path shows where the satellite is in the earth's shadow,  

DLR